Regional Weather Roundup
Issued by NWS

Home | Current Version | Previous Version | Graphics & Text | Print | Product List | Glossary On
Versions: 1 2 3 4 5 6 7 8 9 10 11 12 13 14 15 16 17 18 19 20 21 22 23 24 25 26 27 28 29 30 31 32 33 34 35 36 37 38 39 40 41 42 43 44 45 46 47 48 49 50
714
ASUS43 KTOP 170559
RWRKS

WEATHER ROUNDUP FOR KANSAS
NATIONAL WEATHER SERVICE GOODLAND KS
1200 AM CST SUN DEC 17 2017

NOTE:  "FAIR" INDICATES FEW OR NO CLOUDS BELOW 12,000 FEET WITH NO
SIGNIFICANT WEATHER AND/OR OBSTRUCTIONS TO VISIBILITY.

KSZ001>006-013>018-027>032-041>047-170700-
NORTHWEST KANSAS

CITY           SKY/WX    TMP DP  RH WIND       PRES   REMARKS
GOODLAND       CLOUDY    31  28  89 N18       29.89S WCI  19
6HR MIN TEMP:  27; 6HR MAX TEMP:  41;

HAYS           CLOUDY    38  24  57 N3        29.86R
HILL CITY      CLOUDY    37  29  72 NE14      29.89R WCI  28
6HR MIN TEMP:  36; 6HR MAX TEMP:  42;

RUSSELL        CLOUDY    47  29  49 S13       29.85R
6HR MIN TEMP:  42; 6HR MAX TEMP:  47;

$$

KSZ061>065-074>080-084>089-170700-
SOUTHWEST KANSAS

CITY           SKY/WX    TMP DP  RH WIND       PRES   REMARKS
DODGE CITY     CLOUDY    46  27  47 S14       29.84R
6HR MIN TEMP:  46; 6HR MAX TEMP:  52; 6HR PCP: TRACE;

GARDEN CITY    CLOUDY    42  24  49 SE12      29.81R
6HR MIN TEMP:  37; 6HR MAX TEMP:  47;

GREAT BEND     CLOUDY    49  26  41 S13       29.86R
LIBERAL        PTCLDY    42  25  50 S12       29.81R
$$

KSZ066>073-081>083-090>101-170700-
SOUTHEAST KANSAS

CITY           SKY/WX    TMP DP  RH WIND       PRES   REMARKS
CHANUTE        CLOUDY    52  30  43 S17G25    30.01R
6HR MIN TEMP:  48; 6HR MAX TEMP:  52;

COFFEYVILLE    RAIN      45  42  89 S13       30.01R FOG
6HR MIN TEMP:  45; 6HR MAX TEMP:  54; 6HR PCP:  0.02;

HUTCHINSON     CLOUDY    50  30  46 S18       29.90R
6HR MIN TEMP:  50; 6HR MAX TEMP:  54;

MEDICINE LODGE   N/A     48  32  53 SE7       29.91R
PARSONS        LGT RAIN  46  41  82 SW13G25   30.02R
6HR MIN TEMP:  46; 6HR MAX TEMP:  54; 6HR PCP: TRACE;

WICHITA INTL   LGT RAIN  45  41  86 S16G25    29.94S
6HR MIN TEMP:  45; 6HR MAX TEMP:  55; 6HR PCP:  0.02;

WICHITA JABRA  LGT RAIN  44  40  85 S18G29    29.95R
6HR MIN TEMP:  44; 6HR MAX TEMP:  54; 6HR PCP: TRACE;

WICHITA MCCONL LGT RAIN  44  40  85 S16       29.95S
WINFIELD       CLOUDY    44  43  96 S10       29.99S
6HR MIN TEMP:  44; 6HR MAX TEMP:  54; 6HR PCP:  0.03;

$$

KSZ007>012-019>026-033>040-048>060-102>105-170700-
NORTHEAST KANSAS

CITY           SKY/WX    TMP DP  RH WIND       PRES   REMARKS
CONCORDIA      CLOUDY    36  26  67 CALM      29.90R
6HR MIN TEMP:  34; 6HR MAX TEMP:  45;

EMPORIA        LGT RAIN  49  28  44 S18G25    29.96R
6HR MIN TEMP:  44; 6HR MAX TEMP:  49; 6HR PCP: TRACE;

LAWRENCE       CLOUDY    45  29  53 E7        29.97R
6HR MIN TEMP:  40; 6HR MAX TEMP:  50;

MANHATTAN      MOCLDY    47  26  44 S5        29.93R
6HR MIN TEMP:  40; 6HR MAX TEMP:  50;

OLATHE IND     MOCLDY    45  28  51 S8        29.98S
6HR MIN TEMP:  42; 6HR MAX TEMP:  48;

OLATHE EXE     MOCLDY    43  28  55 S6        29.98R
6HR MIN TEMP:  43; 6HR MAX TEMP:  47;

SALINA         MOCLDY    51  28  41 S10       29.89R
6HR MIN TEMP:  46; 6HR MAX TEMP:  51;

TOPEKA BILLARD MOCLDY    42  30  62 CALM      29.96R
6HR MIN TEMP:  38; 6HR MAX TEMP:  52;

TOPEKA FORBES  CLOUDY    43  28  55 SE6       29.96R
6HR MIN TEMP:  42; 6HR MAX TEMP:  53;

$$




USA.gov is the U.S. government's official web portal to all federal, state and local government web resources and services.